RH
49 73 85 89 85 81 75 68 76 87 78 82 68 60 54 72 78 79 83 56 41 40 40 47 45 42 43 43 43 43 43 43 44
70 82 72 82 84 81 67 50 47 48 63 77 54 56 50 72 78 73 84 58 42 42 42 47 52 52 53 54 53 53 52 51 51
75 67 68 71 70 75 61 40 42 43 44 49 69 56 49 62 74 84 83 66 44 45 44 47 55 57 58 57 55 54 51 51 50
86 78 75 67 70 66 64 47 37 39 45 57 66 52 48 58 72 74 81 62 44 46 48 50 54 59 61 60 57 55 56 55 54
85 88 85 77 66 56 54 52 36 44 55 72 66 52 42 51 71 70 82 77 49 44 48 51 54 60 65 65 62 60 59 60 57
78 85 87 83 76 45 48 51 48 51 53 51 50 44 44 44 68 63 66 63 48 46 49 52 54 56 62 68 68 66 65 66 64
72 82 89 89 89 72 47 40 41 46 53 50 43 40 44 59 74 75 72 58 44 44 48 54 57 58 60 65 65 69 71 73 71
87 86 86 99 90 90 67 41 36 38 47 52 48 53 44 60 80 78 78 67 53 47 42 44 50 55 61 66 67 70 65 73 72
96 94 92 96 99 90 90 76 42 36 38 50 72 78 67 57 81 79 77 76 63 51 46 43 46 52 60 70 73 60 61 61 68
88 85 86 89 91 87 88 93 91 62 38 39 52 79 81 81 72 79 78 75 62 54 52 52 50 54 58 75 81 60 67 76 67
84 81 83 86 88 89 92 95 92 89 72 53 44 65 74 78 77 77 76 72 65 57 54 56 60 63 75 79 78 57 66 74 64
89 85 78 76 78 84 89 93 95 93 80 81 56 48 53 65 74 73 75 75 69 57 54 53 59 61 64 61 72 53 70 76 73
82 86 77 72 68 75 82 88 91 91 92 94 82 71 63 60 65 71 71 73 73 68 60 54 54 55 63 63 62 54 69 74 77
73 80 91 90 86 82 68 75 88 92 99 100 99 89 80 75 79 76 72 71 71 69 71 65 61 62 65 67 66 65 69 72 75
72 73 65 68 85 90 81 77 82 94 91 99 99 100 97 93 87 73 74 76 69 68 69 70 64 64 67 70 68 70 70 70 74
76 72 61 55 64 59 64 84 85 89 91 95 95 85 99 92 99 81 83 81 80 79 78 59 54 51 51 60 71 71 70 72 75
68 59 48 56 76 83 80 96 87 98 87 84 96 97 96 84 90 94 90 84 79 75 56 55 45 42 42 47 69 76 73 74 72
52 47 40 41 60 75 84 83 87 88 85 88 90 92 94 89 87 80 74 77 86 82 65 64 56 50 41 40 42 47 53 68 74
68 73 58 54 52 71 76 86 89 89 91 94 96 92 93 92 88 84 75 74 81 83 80 68 60 52 46 42 48 57 67 76 77
52 44 49 53 57 74 90 91 94 92 92 97 100 99 97 90 100 98 85 79 71 82 75 65 54 52 54 48 71 74 80 80 76
Wind_Speed
5 5 6 8 6 5 6 7 8 9 6 4 4 4 6 8 5 3 5 2 3 4 5 5 5 5 6 7 6 6 6 6 6
6 6 7 8 7 7 8 8 11 9 9 6 4 4 4 5 3 2 4 3 1 2 3 4 4 5 5 5 5 5 5 6 6
7 8 8 9 9 8 7 8 10 10 8 7 5 5 4 5 3 2 6 4 2 1 2 3 3 3 4 4 4 4 4 5 5
8 9 9 10 10 9 8 9 10 10 9 8 7 6 4 6 5 5 8 6 5 2 1 2 1 2 2 3 3 3 4 4 5
13 12 11 10 10 10 10 12 12 11 10 10 9 7 5 7 6 8 10 9 7 5 4 2 2 1 2 2 3 2 3 4 5
14 14 14 12 10 9 10 14 14 14 13 11 10 9 7 7 4 7 9 9 9 8 6 5 4 4 4 3 3 3 4 5 6
12 13 15 14 12 11 12 13 15 16 15 14 13 11 10 8 6 12 13 11 10 10 9 8 7 6 6 6 5 4 5 6 7
12 16 14 16 16 17 16 16 17 18 18 16 13 13 14 12 11 16 15 13 12 12 11 11 10 9 8 8 7 7 7 8 9
13 18 16 20 19 18 20 19 19 20 20 19 15 16 13 14 14 16 16 16 14 14 14 12 12 11 11 10 10 9 9 9 10
21 23 18 17 17 18 17 18 18 19 21 22 21 20 20 18 16 16 18 18 17 16 16 15 13 13 13 13 13 11 11 11 11
15 16 19 20 20 21 22 19 20 19 17 20 22 24 23 20 20 19 22 21 18 16 17 17 16 15 16 17 16 13 13 13 13
16 18 17 18 19 20 23 24 22 21 24 26 25 25 26 25 22 21 21 23 22 20 18 19 18 18 17 18 18 15 16 16 15
20 19 17 13 17 17 20 22 25 26 29 26 26 25 25 26 26 25 24 25 25 23 21 19 20 20 20 18 17 18 18 18 18
19 19 18 14 14 17 18 19 21 24 29 33 30 30 31 30 26 25 26 26 24 25 25 21 20 22 22 22 21 20 20 21 21
17 18 19 18 20 21 21 21 23 25 26 30 31 29 30 28 32 31 29 30 30 28 25 24 24 23 23 25 26 25 23 23 24
19 20 20 19 20 22 25 23 21 23 24 26 30 35 36 38 41 30 32 32 30 28 29 31 27 24 27 27 29 29 28 27 27
22 22 21 22 22 22 26 24 24 26 25 28 30 26 28 32 38 39 41 45 41 41 48 37 34 30 27 29 30 31 31 29 29
20 19 20 22 24 26 27 29 27 29 29 29 29 13 17 20 25 30 33 38 45 41 40 37 36 32 29 29 26 26 30 30 30
17 17 20 23 25 27 29 29 31 30 34 33 35 39 36 26 22 26 25 30 41 45 42 38 37 34 34 35 31 32 33 32 30
19 19 20 24 27 29 30 33 35 35 38 40 38 37 38 39 39 30 28 33 35 40 38 38 40 38 39 33 26 29 35 35 28
Wind_Direction
188 205 203 204 228 255 258 226 209 184 187 187 150 132 113 99 86 185 213 10 38 50 52 56 66 74 70 66 63 59 58 56 53
218 209 218 230 253 270 277 230 213 207 201 197 186 167 145 119 114 15 274 302 4 43 58 59 73 71 64 59 56 53 48 47 44
229 223 230 242 254 265 275 219 207 206 205 208 200 186 161 146 103 239 270 301 300 2 35 46 70 66 51 49 48 48 47 44 33
234 232 239 249 250 257 262 225 213 208 210 216 213 212 209 178 160 269 284 292 282 292 329 7 25 36 32 33 30 39 36 21 11
233 232 245 247 253 254 267 228 214 214 215 213 221 227 221 179 195 231 244 270 281 281 283 294 310 309 316 343 357 357 360 357 356
239 237 239 246 250 257 259 234 220 219 224 230 235 236 225 197 247 261 257 270 268 269 269 275 281 284 280 294 315 321 314 321 330
244 250 240 242 243 249 246 238 233 228 229 236 243 244 236 218 230 261 255 263 260 265 265 265 271 275 277 277 287 294 293 301 310
239 258 255 245 241 243 244 243 237 235 236 244 247 257 244 228 229 251 261 267 263 263 266 264 266 269 272 273 276 280 290 288 296
236 242 246 244 250 251 249 251 249 244 242 239 245 266 261 231 219 244 261 270 268 264 267 263 262 265 264 264 269 281 282 286 289
239 249 245 246 250 259 252 255 264 257 246 245 234 232 245 253 249 241 254 261 269 266 265 266 264 261 259 259 263 271 274 279 297
245 246 245 244 244 247 255 246 254 268 257 251 245 239 243 245 250 246 253 264 267 267 263 263 265 264 265 266 265 263 267 274 296
232 248 251 253 250 251 252 249 236 240 240 257 252 252 254 247 246 250 255 262 265 266 264 261 261 261 262 267 262 257 264 270 284
225 240 250 259 260 253 251 252 251 250 254 253 256 255 254 254 251 243 245 253 262 266 266 263 258 259 261 266 259 255 262 269 277
231 231 245 261 264 267 267 258 259 258 255 261 266 250 252 258 245 244 245 246 250 258 266 265 263 259 260 258 256 260 263 270 277
238 246 252 249 252 268 268 271 261 264 262 264 264 251 260 242 245 245 250 249 248 247 252 263 269 264 260 259 260 262 264 267 273
238 247 256 260 261 263 271 273 264 261 268 272 265 263 258 259 255 249 235 239 241 240 237 251 253 264 272 265 263 263 264 267 273
241 250 257 260 262 263 268 270 263 261 262 263 270 265 271 263 255 253 254 250 246 245 265 261 258 260 265 268 263 265 267 268 269
253 259 263 264 262 261 261 267 265 269 270 262 253 262 254 266 268 259 266 259 256 253 254 257 256 258 268 268 270 266 267 264 265
250 257 266 272 274 273 274 273 270 269 267 269 263 260 256 260 274 268 254 256 250 245 253 250 254 259 262 262 263 265 266 266 263
251 265 272 273 272 273 275 275 269 267 267 266 260 257 263 263 257 257 255 249 250 245 242 249 254 256 252 257 267 268 264 266 263